St. Thomas, VI

9:49 PM AST on May 22, 2017 (GMT -0400)
King

Weather History for TIST - November, 2012

Change the Weather History Date:

Monday, November 12, 2012

  Actual Average Record
Temperature  
Mean Temperature 81 °F 81 °F  
Max Temperature 86 °F 87 °F 92 °F (1987)
Min Temperature 76 °F 75 °F 69 °F (1992)
Degree Days  
Heating Degree Days 0 0  
Month to date heating degree days 0 0  
Since 1 July heating degree days 0 0  
Cooling Degree Days 16 16  
Month to date cooling degree days 203 200  
Year to date cooling degree days 5106 5311  
Growing Degree Days 30 (Base 50)    
Moisture  
Dew Point 74 °F    
Average Humidity 84    
Maximum Humidity 94    
Minimum Humidity 74    
Precipitation  
Precipitation 0.50 in 0.19 in 2.90 in (2003)
Month to date precipitation 1.20 2.36  
Year to date precipitation 28.97 33.51  
Sea Level Pressure  
Sea Level Pressure 29.91 in    
Wind  
Wind Speed 9 mph (ESE)    
Max Wind Speed 20 mph    
Max Gust Speed 24 mph    
Visibility 9 miles    
Events      
T = Trace of Precipitation, MM = Missing Value Source: NWS Daily Summary

Daily Weather History Graph

Daily Weather History Graph

Search for Another Location

Airport or City:

Trip Planner

Search our weather history database for the weather conditions in past years. The results will help you decide how hot, cold, wet, or windy it might be!

Date:

Astronomy

Nov. 12, 2012 Rise Set
Actual Time 6:24 AM AST 5:43 PM AST
Civil Twilight 6:01 AM AST 6:05 PM AST
Nautical Twilight 5:35 AM AST 6:32 PM AST
Astronomical Twilight 5:09 AM AST 6:58 PM AST
Moon 4:53 AM AST (11/12) 4:40 PM AST (11/12)
Length of Visible Light 12h 03m
Length of Day
11h 18m
Waning Crescent, 2% of the Moon is Illuminated
Nov 12
Waning Crescent
Nov 13
New
Nov 20
First Quarter
Nov 28
Full
Dec 6
Last Quarter

Hourly Weather History & Observations

Time (AST) Temp. Heat Index Dew Point Humidity Pressure Visibility Wind Dir Wind Speed Gust Speed Precip Events Conditions
12:49 AM 78.8 °F - 75.2 °F 89% 29.93 in 1.8 mi ESE 5.8 mph - 0.23 in   Overcast
12:50 AM 77.0 °F - 75.2 °F 94% 29.92 in 2.0 mi ESE 4.6 mph - 0.25 in   Overcast
12:53 AM 77.0 °F - 75.9 °F 96% 29.92 in 2.0 mi SE 3.5 mph - 0.28 in   Overcast
1:04 AM 77.0 °F - 77.0 °F 100% 29.91 in 6.0 mi SSE 3.5 mph - 0.02 in   Mostly Cloudy
1:29 AM 75.2 °F - 75.2 °F 100% 29.92 in 2.0 mi East 4.6 mph - 0.19 in   Overcast
1:36 AM 75.2 °F - 75.2 °F 100% 29.92 in 3.0 mi SSE 3.5 mph - 0.21 in   Overcast
1:53 AM 75.9 °F - 73.9 °F 94% 29.91 in 8.0 mi ESE 5.8 mph - 0.22 in   Overcast
2:53 AM 77.0 °F - 75.0 °F 94% 29.88 in 10.0 mi East 6.9 mph - N/A   Scattered Clouds
3:53 AM 78.1 °F - 73.9 °F 87% 29.88 in 10.0 mi ESE 8.1 mph - N/A   Mostly Cloudy
4:53 AM 77.0 °F - 73.9 °F 90% 29.88 in 10.0 mi ENE 4.6 mph - N/A   Clear
5:53 AM 78.1 °F - 75.0 °F 90% 29.88 in 10.0 mi East 6.9 mph - N/A   Partly Cloudy
6:53 AM 79.0 °F - 75.9 °F 90% 29.91 in 10.0 mi East 8.1 mph - N/A   Scattered Clouds
7:53 AM 80.1 °F 85.1 °F 75.0 °F 85% 29.92 in 10.0 mi ESE 8.1 mph - N/A   Clear
8:53 AM 82.9 °F 90.2 °F 75.0 °F 77% 29.95 in 10.0 mi East 13.8 mph - N/A   Clear
9:53 AM 84.9 °F 94.1 °F 75.9 °F 74% 29.96 in 10.0 mi East 13.8 mph - N/A   Partly Cloudy
10:53 AM 84.0 °F 91.9 °F 75.0 °F 74% 29.95 in 10.0 mi East 12.7 mph 21.9 mph N/A   Scattered Clouds
11:53 AM 82.0 °F 89.4 °F 75.9 °F 82% 29.93 in 10.0 mi SE 15.0 mph 23.0 mph N/A   Mostly Cloudy
12:06 PM 82.4 °F 89.5 °F 75.2 °F 79% 29.92 in 10.0 mi SE 17.3 mph - N/A   Scattered Clouds
12:53 PM 82.9 °F 90.8 °F 75.9 °F 79% 29.91 in 10.0 mi SE 9.2 mph - N/A   Partly Cloudy
1:20 PM 82.4 °F 89.5 °F 75.2 °F 79% 29.90 in 10.0 mi SE 11.5 mph - N/A   Mostly Cloudy
1:53 PM 82.0 °F 87.9 °F 73.9 °F 76% 29.89 in 10.0 mi SE 10.4 mph - N/A   Mostly Cloudy
2:53 PM 82.0 °F 87.9 °F 73.9 °F 76% 29.86 in 10.0 mi ESE 11.5 mph - N/A   Clear
3:53 PM 82.0 °F 87.4 °F 73.0 °F 74% 29.84 in 10.0 mi SE 12.7 mph - N/A   Scattered Clouds
4:53 PM 82.0 °F 87.4 °F 73.0 °F 74% 29.85 in 10.0 mi SE 15.0 mph - N/A   Partly Cloudy
5:53 PM 81.0 °F 84.9 °F 71.1 °F 72% 29.87 in 10.0 mi East 6.9 mph - N/A   Clear
6:53 PM 80.1 °F 83.8 °F 72.0 °F 76% 29.90 in 10.0 mi East 5.8 mph - N/A   Clear
7:53 PM 79.0 °F - 73.0 °F 82% 29.92 in 10.0 mi East 8.1 mph - N/A   Clear
8:53 PM 79.0 °F - 72.0 °F 79% 29.93 in 10.0 mi East 8.1 mph - N/A   Clear
9:53 PM 78.1 °F - 72.0 °F 81% 29.93 in 10.0 mi East 5.8 mph - N/A   Clear
10:53 PM 79.0 °F - 71.1 °F 77% 29.95 in 10.0 mi ENE 5.8 mph - N/A   Clear
11:53 PM 80.1 °F 83.8 °F 72.0 °F 76% 29.94 in 10.0 mi NE 9.2 mph - N/A   Clear